Peachtree City, GA

5:26 AM EDT on April 27, 2017 (GMT -0400)
Peachtree City-Falcon

Weather History for KFFC - March, 2014

Change the Weather History Date:

Saturday, March 1, 2014

  Actual Average Record
Temperature  
Mean Temperature 53 °F 50 °F  
Max Temperature 65 °F 63 °F 80 °F (2017)
Min Temperature 40 °F 37 °F 15 °F (2002)
Degree Days  
Heating Degree Days 12 15  
Month to date heating degree days 12 15  
Since 1 July heating degree days 2542 2397  
Cooling Degree Days 0 0  
Month to date cooling degree days 0 0  
Year to date cooling degree days 0 0  
Growing Degree Days 2 (Base 50)    
Moisture  
Dew Point 36 °F    
Average Humidity 64    
Maximum Humidity 92    
Minimum Humidity 36    
Precipitation  
Precipitation 0.00 in 0.17 in 1.56 in (2007)
Month to date precipitation 0.00 0.17  
Year to date precipitation 6.34 9.27  
Snow  
Snow 0.00 in - - ()
Month to date snowfall  
Since 1 July snowfall 1.8  
Snow Depth -    
Sea Level Pressure  
Sea Level Pressure 30.23 in    
Wind  
Wind Speed 3 mph (East)    
Max Wind Speed 9 mph    
Max Gust Speed 12 mph    
Visibility 10 miles    
Events      
T = Trace of Precipitation, MM = Missing Value Source: NWS Daily Summary

Daily Weather History Graph

Daily Weather History Graph

Search for Another Location

Airport or City:

Trip Planner

Search our weather history database for the weather conditions in past years. The results will help you decide how hot, cold, wet, or windy it might be!

Date:

Astronomy

Mar. 01, 2014 Rise Set
Actual Time 7:06 AM EST 6:35 PM EST
Civil Twilight 6:41 AM EST 7:00 PM EST
Nautical Twilight 6:12 AM EST 7:28 PM EST
Astronomical Twilight 5:44 AM EST 7:57 PM EST
Moon 7:02 AM EST (3/1) 7:17 PM EST (3/1)
Length of Visible Light 12h 18m
Length of Day
11h 28m
New Moon, 0% of the Moon is Illuminated
Mar 1
New Moon
Mar 8
First Quarter
Mar 16
Full
Mar 23
Last Quarter
Mar 30
New

Hourly Weather History & Observations

Time (EST) Temp. Windchill Dew Point Humidity Pressure Visibility Wind Dir Wind Speed Gust Speed Precip Events Conditions
12:53 AM 46.0 °F - 30.9 °F 56% 30.18 in 10.0 mi Calm Calm - 0.00 in   Overcast
1:53 AM 43.0 °F - 34.0 °F 71% 30.17 in 10.0 mi Calm Calm - N/A   Mostly Cloudy
2:53 AM 45.0 °F 41.8 °F 28.0 °F 52% 30.15 in 10.0 mi East 5.8 mph - N/A   Overcast
3:53 AM 41.0 °F - 33.1 °F 73% 30.18 in 10.0 mi Calm Calm - N/A   Overcast
4:53 AM 45.0 °F 43.5 °F 28.9 °F 53% 30.19 in 10.0 mi ENE 3.5 mph - N/A   Overcast
5:53 AM 44.1 °F 41.5 °F 30.0 °F 58% 30.22 in 10.0 mi East 4.6 mph - N/A   Overcast
6:53 AM 43.0 °F 40.3 °F 30.9 °F 62% 30.24 in 10.0 mi East 4.6 mph - N/A   Overcast
7:53 AM 43.0 °F 40.3 °F 32.0 °F 65% 30.26 in 10.0 mi East 4.6 mph - N/A   Overcast
8:53 AM 45.0 °F 41.2 °F 34.0 °F 65% 30.29 in 10.0 mi East 6.9 mph - N/A   Mostly Cloudy
9:53 AM 46.9 °F - 37.0 °F 68% 30.30 in 10.0 mi East 8.1 mph - N/A   Overcast
10:53 AM 48.9 °F - 37.9 °F 66% 30.30 in 10.0 mi ESE 4.6 mph - N/A   Overcast
11:53 AM 52.0 °F - 37.9 °F 59% 30.29 in 10.0 mi East 6.9 mph - N/A   Overcast
12:53 PM 55.9 °F - 37.0 °F 49% 30.26 in 10.0 mi Variable 4.6 mph - N/A   Overcast
1:53 PM 60.1 °F - 35.1 °F 39% 30.22 in 10.0 mi SSE 6.9 mph - N/A   Mostly Cloudy
2:53 PM 63.0 °F - 36.0 °F 37% 30.19 in 10.0 mi Calm Calm - N/A   Overcast
3:53 PM 62.1 °F - 37.9 °F 41% 30.19 in 10.0 mi WNW 4.6 mph - N/A   Overcast
4:53 PM 64.9 °F - 39.0 °F 39% 30.18 in 10.0 mi Calm Calm - N/A   Scattered Clouds
5:53 PM 64.0 °F - 39.9 °F 41% 30.19 in 10.0 mi Calm Calm - N/A   Clear
6:53 PM 54.0 °F - 43.0 °F 66% 30.21 in 10.0 mi Calm Calm - N/A   Clear
7:53 PM 51.1 °F - 44.1 °F 77% 30.23 in 10.0 mi Calm Calm - N/A   Mostly Cloudy
8:53 PM 46.9 °F - 42.1 °F 83% 30.24 in 10.0 mi Calm Calm - N/A   Partly Cloudy
9:53 PM 46.9 °F - 43.0 °F 86% 30.26 in 10.0 mi Calm Calm - N/A   Overcast
10:53 PM 45.0 °F - 42.1 °F 90% 30.25 in 10.0 mi Calm Calm - N/A   Partly Cloudy
11:53 PM 43.0 °F - 39.9 °F 89% 30.23 in 8.0 mi Calm Calm - N/A   Clear